Cosmos 1302 Rocket - Orbit

View from above orbital plane
View from above orbital plane
View from above satellite
View from above satellite

Ground track
Ground track

The orbit data is extracted from the following two-line orbital elements,

1 12792U 81084B   13145.84480756  .00000171  00000-0  66612-4 0  2366
2 12792 074.0305 245.0264 0013263 174.8195 299.3462 14.36894149661956
Epoch (UTC): 25 May 2013 20:16:31
Eccentricity: 0.0013263
inclination: 74.0305°
perigee height: 759 km
apogee height: 778 km
right ascension of ascending node: 245.0264°
argument of perigee: 174.8195°
revolutions per day: 14.36894149
mean anomaly at epoch: 299.3462°
orbit number at epoch: 66195

The dashed part of the orbit path shows where the satellite is in the earth's shadow,  

Developed and maintained by Chris Peat, Heavens-Above GmbH. Please read the updated FAQ before sending e-mail. Imprint. DLR